STARLINK-11471, 62225

Orbit data source: Space-Track

STARLINK-11471, 62225 is a payload satellite owned by SpaceX/Seattle (US) in LEO that was launched on Thu, 05 Dec 2024 UTC via an FALCON 9 launch vehicle from the Air Force Western Test Range (AFWTR). Payload-class satellites include a variety of spacecraft equipped with specific instruments for various scientific and technological missions. These include communications satellites like Starlink; space stations such as the ISS; scientific satellites like the Hubble; Earth observation satellites from companies like Planet Labs, Umbra, and HawkEye 360; GPS; miniature CubeSats for education and research; and military/defense satellites.

Loading next visibility...
Identifier
62225, 2024-231H
Orbit
LEO
Last TLE update
4 hours ago
Origin
Manufacturer
SpaceX/Seattle
Mission
Operational Commercial Communications
Bus & Motor
STARLINK V2M, Unknown motor
Mass
730 kg wet, ~700 kg dry
Launch date (UTC)
2024-12-05 (7 months ago)
Launch vehicle
FALCON 9
Launch site
Air Force Western Test Range (AFWTR)
Object type
Payload
Rocket body
Debris
Shape & HBR
Box + 2 Pan, 29 m
Radar Cross Section
36.964 m², Large (>1 m²)

Expand to show TLE details & history

TLE from 4 hours ago
0 STARLINK-11471
1 62225U 24231H   25182.19083965  .00231417  00000-0  18584-2 0  9994
2 62225  53.1565 260.8628 0000990  98.8097 261.3033 15.69759081 33606
Epoch: 2025-07-01T04:34Z
TLE epoch observation values (Epoch: 2025-07-01T04:34:48.545Z)
Latitude
-0.00004°
Longitude
-87.32934°
Altitude
360.602 km
Speed
7.694 km/s
True Right ascension
17h 23m 27s
True Declination
0° 00' 00"
Sunlit
Object was in full shadow at epoch
Visualization orbit readout
Latitude
-30.94226°
Longitude
118.38129°
Altitude
369.203 km
Speed
7.688 km/s
Apparent Right ascension
07h 36m 29s
Apparent Declination
-35° 24' 20"
Sunlit
Object is in daylight
Visualization observer readout
Local Sidereal Time
20:12:13
Azimuth
60.268° ENE
Elevation
-81.618°
Doppler factor
1
Orbital elements
Apogee altitude
360.515 km
Perigee altitude
359.181 km
Semi-major axis
6,737.985 km
Eccentricity
0.0001
Inclination
53.1565°
RAAN
260.8628°
Arg. of periapsis
98.8097°
True anomaly
Unknown
Mean anomaly
261.3033°
Eccentric anomaly
Unknown
Mean motion
3.92417 °/min
Orbital period
91.74 mins
BSTAR
0.0018584
Loading maneuver chart data...
Loading SW <> Apogee altitude chart data...
Loading historical data...
Loading historical data...
Loading historical data...
Loading historical data...
Loading historical data...
Loading historical data...
Loading historical data...

STARLINK-11471 Visibility forecast

Observer location: undefined°, undefined°

Span
Click to sort rows by Start time (UTC) header in descending order
Start Az.
Max El. time (UTC)
Max El. Az.
Max El.
End time (UTC)
End Az.
4 mins2025-07-01 09:24:04.821Z283.598° WNW2025-07-01 09:26:04.821Z327.984° NNW18.495°2025-07-01 09:28:04.821Z16.496° NNE
4 mins2025-07-02 08:18:04.821Z266.224° W2025-07-02 08:19:04.821Z307.685° NW34.695°2025-07-02 08:22:04.821Z38.818° NE
|